Location: �perlecques
(50.8057°N, 2.1521°E)
Time: 13:49:53
(UTC+00:00)

AO-91 - Visible Passes

Search period start: 27 March 2023 00:00
Search period end: 06 April 2023 00:00
Orbit: 448 x 780 km, 97.6° (Epoch: 26 March)

Date Brightness Start Highest point End Pass type
(mag) Time Alt. Az. Time Alt. Az. Time Alt. Az.
27 Mar ? 21:45:09 10° NNE 21:47:11 24° NE 21:47:11 24° NE visible
27 Mar ? 23:21:26 10° N 23:24:14 26° NNW 23:24:14 26° NNW visible
28 Mar ? 22:00:27 10° NNE 22:02:56 29° NNE 22:02:56 29° NNE visible
28 Mar ? 23:37:05 10° N 23:40:00 23° NW 23:40:00 23° NW visible
29 Mar ? 20:41:34 10° NE 20:41:39 10° NE 20:41:39 10° NE visible
29 Mar ? 22:15:48 10° NNE 22:18:42 36° NNE 22:18:42 36° NNE visible
29 Mar ? 23:52:47 10° NNW 23:55:45 19° NW 23:55:45 19° NW visible
30 Mar ? 20:56:13 10° NE 20:57:22 14° NE 20:57:22 14° NE visible
30 Mar ? 22:31:11 10° N 22:34:25 41° N 22:34:25 41° N visible
31 Mar ? 00:08:37 10° NNW 00:11:28 15° NW 00:11:28 15° NW visible
31 Mar ? 21:11:08 10° NE 21:13:04 19° NE 21:13:04 19° NE visible
31 Mar ? 22:46:35 10° N 22:50:06 42° NNW 22:50:06 42° NNW visible
01 Apr ? 00:24:43 10° NNW 00:26:37 12° NW 00:27:09 12° WNW visible
01 Apr ? 21:26:10 10° NNE 21:28:44 24° NE 21:28:44 24° NE visible
01 Apr ? 23:02:02 10° N 23:05:47 38° NW 23:05:47 38° NW visible
02 Apr ? 21:41:18 10° NNE 21:44:22 32° NE 21:44:22 32° NE visible
02 Apr ? 23:17:29 10° N 23:21:25 33° NW 23:21:25 33° NW visible
03 Apr ? 21:56:29 10° NNE 21:59:59 41° NE 21:59:59 41° NE visible
03 Apr ? 23:33:00 10° N 23:37:02 27° WNW 23:37:02 27° WNW visible
04 Apr ? 20:37:40 10° NE 20:38:32 12° ENE 20:38:32 12° ENE visible
04 Apr ? 22:11:42 10° NNE 22:15:34 51° NNE 22:15:34 51° NNE visible
04 Apr ? 23:48:33 10° NNW 23:52:19 21° WNW 23:52:37 21° WNW visible
05 Apr ? 20:52:07 10° NE 20:54:06 16° ENE 20:54:06 16° ENE visible
05 Apr ? 22:26:56 10° NNE 22:31:08 58° N 22:31:08 58° N visible
